Tracking 28790 objects as of 19-Apr-2024
HD Live streaming from Space Station
objects crossing your sky now

STARLINK-2598

Track STARLINK-2598 now!
10-day predictions
STARLINK-2598 is classified as:


NORAD ID: 48385
Int'l Code: 2021-038AJ
Perigee: 553.3 km
Apogee: 555.4 km
Inclination: 53.1 °
Period: 95.6 minutes
Semi major axis: 6925 km
RCS: Unknown
Launch date: May 4, 2021
Source: United States (US)
Launch site: AIR FORCE EASTERN TEST RANGE (AFETR)
Your satellite tracking list
Your tracking list is empty




NASA's NSSDC Master Catalog

Two Line Element Set (TLE):
1 48385U 21038AJ  24109.50685422  .00033283  00000-0  22422-2 0  9993
2 48385  53.0537 209.9620 0001487  92.0726 268.0433 15.06409294164363
Source of the keplerian elements: AFSPC